TimeAST,TemperatureF,Dew PointF,Humidity,Sea Level PressureIn,VisibilityMPH,Wind Direction,Wind SpeedMPH,Gust SpeedMPH,PrecipitationIn,Events,Conditions,WindDirDegrees,DateUTC
12:11 AM,73.4,71.6,94,30.03,10.0,Calm,Calm,-,N/A,,Mostly Cloudy,0,2014-01-22 04:11:00
12:25 AM,73.4,69.8,88,30.02,10.0,Calm,Calm,-,N/A,,Scattered Clouds,0,2014-01-22 04:25:00
12:53 AM,72.0,70.0,93,30.02,10.0,Calm,Calm,-,N/A,,Partly Cloudy,0,2014-01-22 04:53:00
1:53 AM,72.0,70.0,93,30.01,10.0,Calm,Calm,-,N/A,,Scattered Clouds,0,2014-01-22 05:53:00
2:53 AM,73.0,70.0,90,29.99,10.0,Calm,Calm,-,N/A,,Clear,0,2014-01-22 06:53:00
3:53 AM,72.0,70.0,93,29.99,10.0,Calm,Calm,-,N/A,,Scattered Clouds,0,2014-01-22 07:53:00
4:53 AM,73.0,71.1,93,30.00,10.0,Calm,Calm,-,0.00,,Scattered Clouds,0,2014-01-22 08:53:00
5:53 AM,72.0,71.1,97,30.01,10.0,Calm,Calm,-,N/A,,Clear,0,2014-01-22 09:53:00
6:53 AM,72.0,71.1,97,30.03,10.0,Calm,Calm,-,N/A,,Partly Cloudy,0,2014-01-22 10:53:00
7:53 AM,73.9,72.0,93,30.05,10.0,North,3.5,-,N/A,,Mostly Cloudy,10,2014-01-22 11:53:00
8:32 AM,75.2,71.6,89,30.07,5.0,East,5.8,18.4,0.03,Rain,Light Rain,100,2014-01-22 12:32:00
8:39 AM,75.2,73.4,94,30.07,8.0,Calm,Calm,-,0.03,Rain,Light Rain,0,2014-01-22 12:39:00
8:53 AM,77.0,73.9,90,30.07,10.0,Calm,Calm,-,0.03,,Overcast,0,2014-01-22 12:53:00
9:53 AM,81.0,73.9,79,30.08,10.0,SE,11.5,-,N/A,,Partly Cloudy,130,2014-01-22 13:53:00
10:18 AM,80.6,73.4,79,30.08,10.0,ESE,10.4,-,N/A,,Mostly Cloudy,110,2014-01-22 14:18:00
10:53 AM,82.0,73.0,74,30.08,10.0,ESE,12.7,-,N/A,,Mostly Cloudy,120,2014-01-22 14:53:00
11:12 AM,82.4,73.4,74,30.07,10.0,ESE,12.7,-,N/A,,Mostly Cloudy,120,2014-01-22 15:12:00
11:53 AM,82.9,73.0,72,30.06,10.0,East,10.4,-,N/A,,Overcast,100,2014-01-22 15:53:00
12:53 PM,82.9,73.0,72,30.04,10.0,East,9.2,-,N/A,,Mostly Cloudy,100,2014-01-22 16:53:00
1:39 PM,84.2,73.4,70,30.02,10.0,SE,9.2,-,N/A,,Scattered Clouds,130,2014-01-22 17:39:00
1:53 PM,84.0,73.0,69,30.01,10.0,SE,9.2,-,N/A,,Mostly Cloudy,140,2014-01-22 17:53:00
2:09 PM,84.2,73.4,70,30.01,10.0,SSE,8.1,-,N/A,,Mostly Cloudy,150,2014-01-22 18:09:00
2:53 PM,82.9,73.0,72,30.00,10.0,South,10.4,-,N/A,,Overcast,190,2014-01-22 18:53:00
3:04 PM,82.4,73.4,74,30.00,10.0,South,8.1,-,N/A,,Mostly Cloudy,190,2014-01-22 19:04:00
3:53 PM,82.9,72.0,69,30.01,10.0,South,11.5,-,N/A,,Partly Cloudy,170,2014-01-22 19:53:00
4:53 PM,82.0,72.0,71,30.02,10.0,South,8.1,-,N/A,,Clear,170,2014-01-22 20:53:00
5:53 PM,80.1,72.0,76,30.03,10.0,South,8.1,-,N/A,,Clear,170,2014-01-22 21:53:00
6:53 PM,78.1,72.0,81,30.05,10.0,Calm,Calm,-,N/A,,Clear,0,2014-01-22 22:53:00
7:53 PM,73.9,72.0,93,30.07,10.0,Calm,Calm,-,N/A,,Clear,0,2014-01-22 23:53:00
8:53 PM,73.9,72.0,93,30.09,10.0,Calm,Calm,-,N/A,,Clear,0,2014-01-23 00:53:00
9:39 PM,75.2,71.6,89,30.10,10.0,Calm,Calm,-,N/A,,Mostly Cloudy,0,2014-01-23 01:39:00
9:53 PM,75.0,72.0,90,30.10,10.0,Calm,Calm,-,N/A,,Mostly Cloudy,0,2014-01-23 01:53:00
10:07 PM,73.4,71.6,94,30.10,10.0,Calm,Calm,-,N/A,,Partly Cloudy,0,2014-01-23 02:07:00
10:53 PM,73.9,72.0,93,30.11,10.0,Calm,Calm,-,N/A,,Mostly Cloudy,0,2014-01-23 02:53:00
11:18 PM,73.4,71.6,94,30.11,10.0,Calm,Calm,-,N/A,,Partly Cloudy,0,2014-01-23 03:18:00
11:53 PM,73.9,72.0,93,30.11,10.0,Calm,Calm,-,N/A,,Clear,0,2014-01-23 03:53:00